Regional Weather Roundup
Issued by NWS

Home | Current Version | Previous Version | Graphics & Text | Print | Product List | Glossary On
Versions: 1 2 3 4 5 6 7 8 9 10 11 12 13 14 15 16 17 18 19 20 21 22 23 24 25 26 27 28 29 30 31 32 33 34 35 36 37 38 39 40 41 42 43 44 45 46 47 48 49 50
918
ASUS43 KLOT 110907
RWRIL

ILLINOIS REGIONAL WEATHER ROUNDUP
NATIONAL WEATHER SERVICE CHICAGO/ROMEOVILLE IL
300 AM CST SUN DEC 11 2016

NOTE: "FAIR" INDICATES FEW OR NO CLOUDS BELOW 12,000 FEET WITH NO
SIGNIFICANT WEATHER AND/OR OBSTRUCTIONS TO VISIBILITY.

* THESE STATIONS ARE NOT UNDER NWS QUALITY CONTROL. THEY ALSO MAY NOT
  REPORT WEATHER SUCH AS PRECIPITATION OR FOG.

ILZ001-002-007-009-015-016-024-111000-
NORTHWEST ILLINOIS

CITY           SKY/WX    TMP DP  RH WIND       PRES   REMARKS
MOLINE         CLOUDY    28  22  78 E10       30.06F WCI  19
STERLING*      FLURRIES  26  23  88 SE9       30.12F WCI  17
SAVANNA*       FLURRIES  26  23  87 SE9       30.10F WCI  17
$$

ILZ003-004-008-010-011-017-018-111000-
NORTH CENTRAL ILLINOIS

CITY           SKY/WX    TMP DP  RH WIND       PRES   REMARKS
ROCKFORD       LGT SNOW  24  21  88 SE10      30.15F FOG     WCI  14
FREEPORT*      LGT SNOW  24  21  91 SE14      30.13F WCI  11
ROCHELLE*      LGT SNOW  25  22  91 SE16      30.14F WCI  12
DE KALB*       LGT SNOW  24  22  93 SE14      30.14F WCI  11
$$

ILZ005-006-012>014-019>023-111000-
NORTHEAST ILLINOIS

CITY           SKY/WX    TMP DP  RH WIND       PRES   REMARKS
CHICAGO-OHARE  LGT SNOW  24  21  88 SE10      30.18F FOG     WCI  14
CHICAGO-MIDWAY LGT SNOW  25  21  85 SE12      30.19F FOG     WCI  14
AURORA         LGT SNOW  25  22  88 SE12      30.16F FOG     WCI  14
LANSING*       LGT SNOW  25  24  96 SE10      30.21F WCI  15
JOLIET*        LGT SNOW  27  24  90 SE10      30.17F WCI  17
WAUKEGAN       LGT SNOW  25  23  92 S10       30.18F FOG     WCI  15
DUPAGE AIRPORT LGT SNOW  24  20  84 SE9       30.16F FOG     WCI  14
KANKAKEE*      MIX PCPN  26  23  90 E14       30.18F WCI  14
WHEELING       LGT SNOW  24  21  88 SE7       30.21F FOG     WCI  16
MORRIS*        CLOUDY    26  23  87 SE10      30.16F WCI  17
ROMEOVILLE*    CLOUDY    25  25  99 SE16      30.17F WCI  12
NORTHERLY ISL    N/A     26  24  92 SE15        N/A  WCI  14
$$

LMZ740>746-111000-
SOUTHERN LAKE MICHIGAN

STATION/POSITION SKY/WX   TEMP    WIND        PRES    VSBY  WAVE
                          AIR SEA DIR/SP/G                  HT/PER
                          (F)     (DEG/KT/KT) (MB)    (MI)  (FT/S)
BURNHAM HARBOR             26     140/ 14       N/A
CALUMET HARBOR             25     140/  9/ 16 1022.4F
BURNS HARBOR               24     140/  9/ 14 1024.7F
$$

ILZ025>027-034>036-040-047-049-050-058-095>099-111000-
WEST-CENTRAL ILLINOIS

CITY           SKY/WX    TMP DP  RH WIND       PRES   REMARKS
QUINCY         CLOUDY    35  16  45 S13       30.01F WCI  26
GALESBURG*     CLOUDY    29  23  77 SE6       30.04F WCI  23
MACOMB*        CLOUDY    32  22  66 S13       30.06F WCI  23
JACKSONVILLE*  CLOUDY    34  20  57 S9        30.07F WCI  26
PITTSFIELD*    CLOUDY    35  19  51 S13       30.05F WCI  27
$$

ILZ028>032-037-038-041>044-048-051>054-059>061-111000-
CENTRAL ILLINOIS

CITY           SKY/WX    TMP DP  RH WIND       PRES   REMARKS
PONTIAC        CLOUDY    28  25  87 SE15      30.15F WCI  17
BLOOMINGTON    CLOUDY    28  22  78 SE12      30.12F WCI  18
DECATUR        CLOUDY    32  19  58 S12       30.13F WCI  23
PEORIA         CLOUDY    31  24  75 S9        30.09F WCI  23
LACON*         CLOUDY    27  23  84 SE10      30.10F WCI  18
LINCOLN*       CLOUDY    33  22  64 S8G16     30.11F WCI  26
SPRINGFIELD    CLOUDY    35  21  56 S12       30.09F WCI  27
TAYLORVILLE    CLOUDY    33  20  57 S14G23    30.10F WCI  23
$$

ILZ033-039-045-046-055>057-062-063-111000-
EAST-CENTRAL ILLINOIS

CITY           SKY/WX    TMP DP  RH WIND       PRES   REMARKS
CHAMPAIGN      CLOUDY    30  20  66 SE14      30.15F WCI  19
RANTOUL*       CLOUDY    30  24  77 SE15      30.15F WCI  19
MATTOON        CLOUDY    31  18  58 S18G24    30.16F WCI  19
PARIS*         CLOUDY    30  21  69 SE15      30.21F WCI  19
$$

ILZ079-100>102-111000-
SOUTHWEST ILLINOIS

CITY           SKY/WX    TMP DP  RH WIND       PRES   REMARKS
ALTON          CLOUDY    37  19  48 S13       30.10F WCI  28
BELLEVILLE     CLOUDY    38  19  45 S14       30.11F WCI  30
CAHOKIA*       CLOUDY    37  20  50 SE9       30.10F WCI  30
SPARTA*        CLOUDY    38  17  42 S15G22    30.14F WCI  30
$$

ILZ064>066-069>071-074>076-080>082-084>086-088>090-092>094-111000-
SOUTH-CENTRAL ILLINOIS

CITY           SKY/WX    TMP DP  RH WIND       PRES   REMARKS
CARBONDALE     CLOUDY    39  18  42 S16       30.18F WCI  30
CAIRO*         CLOUDY    38  22  51 S12       30.22F WCI  30
EFFINGHAM*     CLOUDY    33  23  68 SE10      30.19F WCI  24
MARION         CLOUDY    39  19  45 S8        30.20F WCI  34
CENTRALIA*     CLOUDY    37  21  51 SE9       30.15F WCI  31
SALEM*         CLOUDY    36  20  52 SE6       30.16F WCI  31
METROPOLIS*    CLOUDY    39  19  43 SE5       30.23F
$$

ILZ067-068-072-073-078-083-087-091-111000-
SOUTHEAST ILLINOIS

CITY           SKY/WX    TMP DP  RH WIND       PRES   REMARKS
LAWRENCEVILLE  CLOUDY    33  21  61 SE12      30.24F WCI  24
FLORA*         CLOUDY    35  22  61 SE10      30.20F WCI  27
FAIRFIELD*     CLOUDY    34  22  61 SE5       30.20F WCI  30
HARRISBURG*    CLOUDY    38  20  49 S10       30.22F WCI  31
ROBINSON*      CLOUDY    31  21  66 SE10      30.24F WCI  22
CARMI*         CLOUDY    33  24  69 SE10      30.22F WCI  25
$$

ABBREVIATIONS USED IN REMARKS
   TC - TEMPERATURE IN CELSIUS
  WCI - WIND CHILL INDEX
   HX - HEAT INDEX
  VSB - VISIBILITY
$$





USA.gov is the U.S. government's official web portal to all federal, state and local government web resources and services.